ATLAS 5 CENTAUR DEB, 44670

Orbit data source: Space-Track

ATLAS 5 CENTAUR DEB, 44670 is space debris in HEO originally from a launch on Wed, 17 Oct 2018 UTC launched from the Air Force Eastern Test Range (AFETR). Debris objects in space refer to the collection of defunct objects orbiting the Earth. Examples of debris include non-operational satellites, rocket bodies, and fragments generated from explosions, collisions, or faulty payload assembly.

Loading next visibility...
Identifier
44670, 2018-079AG
Orbit
HEO
Country
Flag of USUS
Related business
Flag of USUnited Launch Alliance/Lockheed Martin (US)
Manufacturer
ULA Decatur
Mission
Spacecraft
Bus & Motor
Unknown
Mass
Unknown
Launch date (UTC)
2018-10-17 (7 years ago)
Launch vehicle
Unknown
Launch site
Air Force Eastern Test Range (AFETR)
Object type
Payload
Rocket body
Debris
Shape & HBR
Unknown
Radar Cross Section
Large (>1 m²)

Expand to show TLE details & history
Last TLE update: 1 day ago

TLE from 1 day ago
0 ATLAS 5 CENTAUR DEB
1 44670U 18079AG  25241.57750870 -.00000186  00000-0  00000-0 0  9995
2 44670  12.9693  60.1526 4638581 267.3470  40.7223  1.82912143 41720
Epoch: 2025-08-29T13:51Z
TLE epoch observation values (Epoch: 2025-08-29T13:51:36.751Z)
Latitude
-0.00005°
Longitude
-125.69466°
Altitude
16,257.752 km
Speed
4.594 km/s
True Right ascension
04h 00m 55s
True Declination
0° 00' 00"
Sunlit
Object was in daylight at epoch
Visualization orbit readout
Latitude
Unknown
Longitude
Unknown
Altitude
Unknown
Speed
Unknown
Apparent Right ascension
Unknown
Apparent Declination
Unknown
Sunlit
N/A
Visualization observer readout
Local Sidereal Time
16:49:52
Azimuth
Unknown
Elevation
Unknown
Doppler factor
Unknown
Orbital elements
Apogee altitude
34,968.286 km
Perigee altitude
8,765.1 km
Semi-major axis
28,244.83 km
Eccentricity
0.46386
Inclination
12.9693°
RAAN
60.1526°
Arg. of periapsis
267.347°
True anomaly
92.67843°
Mean anomaly
40.7223°
Eccentric anomaly
64.7626°
Mean motion
0.45723 °/min
Orbital period
787.35 mins
BSTAR
0
Loading maneuver chart data...
Computing Atmospheric mass density...

Documentation

Showing up to 5 results
|